Theta_e
304 304 304 304 304 304 303 302 302 302 302 303 303 303 304 305 306 306 306 306 307 308 308 308 307 307 307 308 310 309 308 308 308 309 309 311 313 313 311 312 312 311 309 309 309 309 308
307 307 307 307 307 305 304 303 302 302 302 302 303 304 304 304 305 306 306 306 307 307 308 308 308 307 307 307 310 310 310 309 308 308 309 311 313 313 313 311 311 310 308 308 308 307 307
304 304 305 305 305 306 306 304 303 303 303 303 302 303 303 304 305 305 306 306 306 307 307 308 307 308 307 307 308 309 308 308 308 308 309 311 313 313 313 310 311 310 310 308 307 307 306
311 310 307 305 304 303 303 303 303 303 302 302 303 303 303 303 304 304 305 306 306 307 307 308 307 308 309 309 308 308 307 308 308 308 309 311 313 313 312 310 308 308 307 311 308 308 306
322 321 320 316 312 307 305 303 303 303 303 303 303 303 303 303 304 304 304 305 306 307 307 307 308 307 308 309 308 308 307 308 307 307 310 312 312 311 310 307 307 304 307 307 308 308 306
323 323 322 322 320 316 311 306 304 303 303 303 303 303 303 303 304 304 305 305 306 306 308 307 308 309 309 310 309 308 308 307 307 308 310 311 309 305 303 305 306 306 307 305 306 309 306
324 324 323 322 322 322 318 315 307 304 303 304 303 303 303 303 303 304 305 305 307 308 310 309 308 309 309 310 309 308 308 307 308 308 305 306 305 306 306 305 303 302 305 306 305 307 309
323 324 324 324 323 323 322 320 317 310 306 305 304 304 303 304 304 304 304 304 305 306 306 307 309 308 309 309 308 308 308 307 308 305 304 304 304 302 303 303 304 304 305 305 305 308 309
322 323 324 323 322 322 323 323 322 319 315 309 306 305 304 304 304 304 304 304 304 305 304 306 307 308 308 308 308 308 308 308 306 306 304 303 305 303 305 304 305 305 304 305 306 307 308
308 313 319 321 321 322 322 322 321 322 321 318 314 309 306 305 304 304 303 304 304 304 301 304 308 308 308 308 307 309 308 309 307 305 303 304 305 307 307 306 304 306 304 305 306 306 307
304 308 310 311 312 314 318 322 321 321 322 321 321 317 310 305 304 302 302 303 304 306 303 306 307 307 308 307 307 307 308 309 307 306 304 306 306 307 307 307 304 306 304 304 303 303 303
302 302 303 305 307 311 318 320 321 321 321 321 321 321 318 311 304 302 302 302 305 304 303 307 307 305 306 307 307 306 306 307 306 305 304 304 305 305 306 304 304 301 302 302 301 302 305
301 301 301 301 302 305 314 318 319 320 320 320 320 321 320 317 308 302 302 304 302 304 303 307 307 304 304 304 305 304 304 303 304 305 305 304 304 304 305 304 304 301 302 307 307 307 308
299 300 301 301 301 302 305 314 319 319 319 319 320 320 320 319 317 304 301 302 302 303 302 305 306 304 304 303 304 304 303 302 300 302 301 305 306 304 303 304 305 301 303 308 309 310 309
298 299 299 300 301 301 302 307 312 315 316 317 318 317 317 318 318 310 302 300 302 302 304 305 305 306 304 304 304 303 301 302 301 299 305 303 305 301 302 302 302 303 304 302 303 299 303
302 304 300 301 300 300 301 303 308 314 314 317 315 315 315 316 313 308 303 302 300 301 305 305 306 304 304 303 303 302 301 301 303 299 301 304 306 300 300 301 300 302 300 305 303 308 307
300 302 304 303 302 302 300 301 300 306 312 313 315 315 312 311 306 301 303 302 300 303 304 305 306 306 303 302 302 301 303 302 301 299 300 299 304 300 300 301 302 301 302 301 302 303 308
300 300 300 300 302 303 303 300 300 299 303 309 314 312 309 304 304 301 303 302 302 303 304 304 303 303 302 302 301 300 302 302 302 299 301 298 299 300 301 296 296 299 301 300 307 305 299
301 301 300 300 299 301 303 303 300 300 304 310 311 310 306 305 307 303 302 301 301 304 305 305 306 304 302 303 304 301 300 300 301 299 300 297 300 300 302 299 295 296 297 298 297 298 299
300 301 301 301 300 298 302 304 302 300 304 310 309 309 303 301 301 304 306 307 307 305 304 305 304 304 304 305 302 302 301 298 298 299 301 300 298 303 314 309 298 296 296 298 303 300 304
300 300 301 301 301 300 299 303 303 300 303 308 307 308 307 305 302 303 303 304 306 305 304 303 304 305 306 308 308 308 301 298 297 299 298 298 300 297 298 298 297 298 297 298 302 305 307
299 299 299 300 301 300 298 302 304 301 302 305 307 307 305 306 305 305 304 304 306 307 307 307 306 307 306 305 307 307 301 300 301 298 298 296 300 298 299 296 297 298 298 296 299 301 301
300 300 299 300 301 300 299 301 304 302 300 305 304 305 306 306 304 303 304 302 306 305 305 305 306 304 305 305 304 304 302 300 300 299 299 298 299 305 307 299 305 310 305 298 298 298 301
299 299 300 300 301 301 299 298 302 303 301 303 305 306 305 305 304 303 304 304 305 305 303 303 301 301 301 300 300 299 298 298 299 300 299 300 302 305 304 302 308 299 288 290 298 298 294
298 299 298 299 301 301 300 300 302 302 302 301 303 304 305 303 303 302 303 303 304 303 301 300 300 298 297 298 300 301 301 300 298 293 295 296 302 302 304 303 304 301 291 293 296 299 291
297 298 297 298 301 301 300 300 302 301 303 301 303 302 303 302 301 302 303 303 303 302 299 297 296 295 295 298 302 304 306 304 300 295 292 294 296 303 299 304 308 297 288 287 286 300 285
298 298 297 299 301 300 300 298 302 301 302 302 301 302 302 300 302 303 303 302 301 300 300 295 294 293 294 298 302 304 305 299 302 299 294 296 297 301 301 302 301 291 287 287 302 300 284
298 299 299 300 300 300 296 295 300 301 302 302 301 301 301 301 301 301 301 301 299 299 300 295 295 293 294 298 301 302 302 299 298 295 294 297 298 298 300 300 302 287 286 293 289 283 284
300 300 300 300 298 294 293 295 299 300 300 300 301 301 301 301 299 299 299 298 297 296 295 295 295 294 295 297 298 299 300 295 297 300 292 296 297 298 299 298 288 286 286 286 286 285 284
Wind_Speed
9 9 8 9 9 11 12 13 12 13 12 12 12 12 12 13 13 13 13 12 11 10 10 9 8 6 4 3 4 5 6 5 4 3 1 2 3 4 5 4 3 3 2 5 7 9 14
14 15 16 15 14 13 13 11 13 13 13 14 13 13 13 12 13 14 14 13 11 10 10 9 8 6 4 2 5 6 6 6 4 2 2 3 3 6 8 4 3 4 10 9 5 9 9
12 13 15 16 18 18 16 16 14 12 14 13 14 15 15 14 13 14 16 15 13 11 9 9 7 5 7 7 6 6 6 5 3 1 3 5 7 4 7 5 8 8 4 2 4 7 4
12 12 13 14 14 16 18 19 18 17 16 14 13 13 15 16 17 15 14 15 15 12 10 8 7 6 5 6 6 5 4 3 1 1 4 5 7 8 3 14 5 4 4 3 3 8 2
12 14 14 13 14 15 15 15 17 19 19 18 18 16 14 15 16 18 16 15 15 13 11 9 8 6 4 5 4 4 3 2 2 4 5 7 6 5 7 5 3 5 3 4 2 9 5
12 14 16 16 16 16 16 16 15 15 17 19 20 20 19 17 16 16 17 16 16 15 12 11 11 6 7 4 4 4 4 4 4 7 7 4 3 4 3 3 5 6 4 4 4 6 4
13 15 16 18 17 15 15 16 16 16 16 17 18 20 20 20 19 18 17 15 10 7 6 8 4 4 3 5 4 5 5 6 7 5 4 2 3 7 11 7 3 5 4 4 4 5 5
16 17 20 19 18 17 17 17 16 17 18 17 18 18 18 20 20 20 18 11 11 9 12 14 19 16 12 8 5 8 7 8 6 5 5 4 7 6 4 6 5 4 4 4 1 2 5
14 14 15 17 18 18 17 17 19 17 17 18 18 19 18 17 18 17 14 13 11 10 6 8 10 7 6 10 5 9 9 7 4 5 6 6 2 6 5 4 6 4 5 4 3 2 1
18 18 18 18 18 17 18 18 17 18 19 18 18 18 19 17 12 12 11 11 10 10 4 6 3 3 6 5 4 8 11 5 2 9 8 5 2 6 4 4 6 5 5 4 5 4 4
21 21 21 20 19 21 19 19 19 20 18 19 18 19 18 17 14 13 12 10 8 6 5 1 2 4 7 4 3 3 8 6 6 6 6 5 7 5 4 5 7 4 3 5 2 3 2
22 21 21 22 21 19 15 18 20 19 17 19 19 18 16 18 14 10 10 8 3 5 7 3 1 3 3 3 2 4 3 3 4 4 0 2 1 3 5 3 2 8 5 5 4 3 1
25 23 23 23 23 21 19 18 18 20 19 18 18 21 18 15 13 10 8 3 4 4 3 4 4 2 2 5 4 4 4 5 6 5 6 1 4 3 4 6 3 2 5 1 2 0 6
26 26 26 25 24 24 23 21 20 20 19 18 19 20 19 18 13 9 4 3 5 6 8 2 2 2 5 6 4 6 3 4 7 2 3 7 5 9 6 6 7 7 6 5 6 4 2
25 25 25 24 24 23 24 21 18 18 21 18 20 18 19 19 15 11 4 3 7 7 4 6 2 4 4 4 4 2 9 5 8 13 9 6 5 1 2 2 4 6 5 2 5 2 2
20 21 23 24 23 22 22 22 23 19 18 16 14 18 16 19 13 13 4 8 6 5 2 2 9 9 8 5 6 7 8 5 6 13 1 5 2 1 1 1 2 3 5 3 1 4 6
18 18 19 21 21 21 21 21 20 22 19 20 19 8 8 7 7 5 4 8 7 25 9 5 5 5 8 7 8 6 7 4 6 7 6 6 3 1 2 8 9 4 3 1 2 4 5
22 20 20 20 21 20 19 18 16 16 17 17 14 5 4 10 4 3 3 5 6 11 12 4 5 5 6 7 8 7 10 8 14 13 9 8 6 5 9 2 1 2 7 7 5 6 3
23 23 21 19 20 20 19 18 16 13 12 13 9 8 8 15 3 4 4 5 8 3 5 1 6 9 3 5 6 10 7 2 16 11 11 8 4 2 2 1 1 6 6 4 4 3 8
23 22 22 20 19 19 18 17 17 14 11 15 7 2 4 12 5 2 1 4 5 10 9 12 10 13 8 12 5 7 4 2 5 6 3 7 6 8 12 5 6 6 8 11 8 4 7
23 22 23 20 19 18 17 16 17 15 11 13 8 4 5 3 5 6 3 2 3 6 8 7 5 16 18 10 9 14 4 4 3 5 2 2 6 3 2 3 0 2 5 16 20 23 11
26 25 24 23 22 20 17 16 14 14 13 16 5 6 7 4 6 7 8 3 4 9 4 6 12 13 7 11 17 5 2 4 3 3 2 1 2 1 1 5 4 4 6 8 15 13 15
24 24 25 24 22 22 18 18 14 12 15 14 15 20 11 3 3 3 4 6 5 4 10 22 11 3 9 16 16 21 15 12 7 5 7 3 4 3 10 3 5 12 7 15 7 5 7
25 25 24 24 23 22 21 20 16 15 16 24 15 14 8 4 6 5 4 11 10 8 5 14 12 4 4 4 2 2 5 7 11 10 7 6 6 3 2 4 6 3 1 3 7 2 2
26 26 25 25 24 21 19 18 20 18 17 20 26 19 5 3 5 7 13 12 16 12 6 8 11 8 6 3 2 3 2 2 3 2 3 2 4 4 4 6 8 2 3 3 4 2 1
25 26 25 25 24 23 21 20 21 21 19 19 24 23 9 2 6 12 4 9 5 4 2 3 7 5 5 3 2 4 3 2 2 2 3 1 3 1 2 4 7 1 2 5 3 3 3
25 25 24 24 23 22 23 23 22 22 22 20 19 21 16 5 10 6 3 3 4 2 2 2 2 2 4 2 3 3 3 1 3 3 3 3 1 4 3 3 4 1 2 3 4 1 7
23 23 22 22 23 25 25 23 27 20 13 14 20 18 16 6 13 15 11 7 5 4 2 2 1 2 0 2 2 2 3 3 2 2 3 5 6 3 3 2 8 5 4 4 1 5 11
17 16 20 22 24 22 21 19 25 26 18 19 19 19 16 16 6 7 9 10 12 11 4 4 2 2 7 2 2 2 2 1 3 2 0 3 2 2 4 1 1 8 1 2 6 16 16
Wind_Direction
351 354 355 359 1 354 357 354 352 349 345 342 338 335 334 332 330 330 331 332 330 329 328 326 322 309 295 280 255 287 305 299 286 261 192 164 146 131 119 111 96 84 112 71 113 131 123
350 345 343 342 341 343 342 346 343 344 344 341 336 331 328 327 327 325 325 324 323 321 319 317 313 301 274 249 257 286 291 290 287 249 202 164 149 125 112 83 80 112 109 115 121 128 137
1 356 348 345 341 337 334 333 333 334 334 336 337 333 330 326 327 325 324 320 316 312 311 309 304 293 271 261 259 286 292 277 281 203 169 147 140 149 123 101 120 131 87 114 150 161 147
12 8 2 352 348 344 340 334 331 329 329 328 330 332 330 328 324 323 321 317 312 305 300 296 286 284 264 247 259 264 282 264 259 163 143 133 137 119 92 120 64 73 58 144 194 161 138
6 1 358 357 353 347 343 340 335 332 329 328 328 327 328 327 325 320 317 312 305 298 291 286 279 270 256 251 232 228 235 205 174 150 140 141 146 100 120 94 39 4 202 199 242 196 141
339 347 344 345 343 345 345 340 336 331 329 328 327 326 326 325 323 322 318 314 300 288 278 275 261 271 232 225 220 210 201 180 156 154 141 163 109 83 53 113 217 196 209 221 217 201 164
315 316 324 331 333 332 336 340 337 330 328 325 325 324 323 324 325 325 324 334 306 281 262 238 246 248 205 212 217 225 195 178 158 170 159 92 109 200 203 186 146 142 172 200 223 175 157
302 305 315 315 318 323 324 328 333 333 329 326 324 322 321 322 324 326 329 337 315 299 299 259 248 244 247 236 237 216 195 182 173 174 126 42 234 211 121 166 151 156 162 225 303 124 180
304 301 297 308 309 318 316 317 321 325 330 329 327 323 321 323 324 326 340 332 324 320 276 273 240 233 226 223 228 202 192 176 152 146 185 167 228 130 136 151 164 196 180 194 199 119 231
293 291 290 292 299 302 305 307 313 317 321 326 329 329 324 323 323 331 342 337 328 332 2 263 209 219 182 191 244 185 186 178 156 194 161 227 197 159 159 185 147 194 195 159 150 126 231
288 289 292 295 297 292 293 296 301 308 313 315 321 325 330 326 319 324 320 321 327 349 335 323 179 174 162 189 146 188 181 174 178 177 127 240 169 169 171 206 173 208 115 130 105 120 58
285 287 287 288 289 290 292 289 296 296 294 301 306 311 321 321 322 324 316 308 323 51 258 295 140 177 130 181 201 147 162 172 137 124 77 215 209 198 192 97 130 148 83 54 57 97 263
285 285 285 284 286 285 278 281 290 292 290 297 300 301 306 311 311 306 322 288 43 159 310 271 257 200 234 193 188 176 182 183 166 134 213 185 216 182 154 90 49 104 104 296 325 286 230
282 283 284 284 284 283 279 269 269 277 285 293 295 295 294 293 284 287 301 48 208 228 234 87 92 38 216 161 245 168 166 245 240 134 130 167 271 171 186 192 177 184 171 174 220 210 249
289 288 287 287 287 288 288 288 285 281 281 287 292 294 294 289 275 236 138 220 213 200 226 155 103 186 247 243 183 168 194 219 216 181 188 166 266 40 75 141 143 188 200 169 103 65 9
299 298 296 298 296 291 288 285 282 281 280 281 279 295 283 275 265 209 115 234 239 239 160 154 201 180 211 205 183 186 194 210 210 189 131 217 150 10 101 90 10 184 161 98 13 201 244
300 297 298 300 301 300 298 294 290 278 275 280 289 268 250 229 187 159 196 217 247 255 243 212 255 247 224 189 202 211 223 256 219 160 144 154 131 18 114 208 181 154 198 120 131 174 199
301 302 300 292 296 301 301 294 290 290 281 272 278 266 194 174 138 166 208 204 276 274 300 292 285 251 228 219 215 232 215 231 176 151 174 200 139 176 196 194 178 215 204 171 166 212 237
289 293 297 302 292 290 299 298 286 281 269 266 257 248 213 194 241 203 240 252 249 210 229 254 257 228 171 265 255 204 211 282 184 171 168 186 211 127 307 325 347 211 190 179 106 72 201
281 284 293 299 308 291 288 299 292 269 261 248 244 211 154 200 244 285 273 260 253 240 251 223 252 296 297 268 219 292 288 334 230 220 232 162 186 191 230 198 130 188 190 185 175 168 191
277 281 285 289 294 301 272 285 294 275 238 244 236 230 199 182 229 214 152 269 273 277 228 197 222 225 235 251 241 249 277 331 344 316 330 194 230 176 335 53 346 214 179 189 205 220 211
279 279 279 282 290 297 278 275 282 278 236 233 242 203 190 214 206 187 187 218 242 279 252 256 231 234 243 246 230 252 185 183 238 336 245 340 284 103 85 44 23 295 262 208 228 241 249
277 277 276 278 279 291 291 260 269 269 242 231 235 245 253 189 167 194 210 201 228 215 249 249 279 261 231 241 258 259 222 186 184 198 186 200 172 100 259 51 11 285 211 206 196 201 192
274 278 278 276 274 286 290 254 253 257 253 231 240 229 208 224 196 210 227 220 244 230 249 273 263 239 250 246 161 201 205 215 205 207 191 175 174 167 183 116 233 281 347 26 254 259 141
273 276 276 278 271 279 284 263 245 251 256 239 235 240 232 254 226 267 258 264 277 260 248 255 263 259 243 183 123 272 249 235 175 46 250 287 169 174 196 195 325 207 157 148 147 312 340
275 273 277 276 265 274 278 260 250 240 242 236 234 229 230 257 225 239 244 247 264 255 257 221 279 265 225 268 157 202 249 266 271 294 358 238 6 253 156 199 219 68 193 154 116 268 179
278 276 274 268 264 273 273 260 254 254 225 227 231 233 242 236 252 254 220 235 225 217 252 277 266 249 204 254 248 199 211 113 217 215 189 145 138 215 198 232 291 155 145 139 142 220 155
284 277 267 260 267 275 274 268 240 247 252 255 232 227 226 225 267 267 262 254 247 225 238 178 204 216 69 275 264 232 211 184 162 134 209 180 160 177 161 179 255 169 129 189 152 115 153
285 269 270 271 270 271 271 267 246 239 244 257 250 227 225 233 268 250 263 261 258 258 265 220 279 204 212 233 270 306 248 136 120 262 166 241 234 213 208 220 134 164 105 161 155 157 158